TMG6012 WICC-WAWW

Flight info

Callsign TMG6012
Flight time 2h 31m
Altitude 39000
Route CA T5 SUGTA
Aircraft B738/M-SDFGHIRWY/EB2

Departure

Time 2026-04-19 00:41
Airport Husein Sastranegara International Airport (WICC)

Arrival

Time 2026-04-19 03:12
Airport Haluoleo Airport (WAWW)
Time Latitude Longitude Altitude Speed Heading
2026-04-19 00:22 -6.90290 107.57918 2454 ft 0 kts 189°
2026-04-19 00:34 -6.90312 107.57916 2428 ft 5 kts 177°
2026-04-19 00:34 -6.90319 107.57924 2420 ft 1 kts 130°
2026-04-19 00:34 -6.90324 107.57933 2420 ft 1 kts 114°
2026-04-19 00:35 -6.90327 107.57942 2426 ft 1 kts 105°
2026-04-19 00:35 -6.90327 107.57952 2419 ft 1 kts 91°
2026-04-19 00:35 -6.90326 107.57961 2418 ft 1 kts 86°
2026-04-19 00:35 -6.90325 107.57969 2425 ft 1 kts 80°
2026-04-19 00:36 -6.90321 107.57986 2425 ft 3 kts 78°
2026-04-19 00:36 -6.90317 107.58001 2420 ft 3 kts 75°
2026-04-19 00:36 -6.90307 107.58030 2426 ft 3 kts 68°
2026-04-19 00:36 -6.90294 107.58047 2420 ft 3 kts 42°
2026-04-19 00:37 -6.90276 107.58058 2427 ft 3 kts 29°
2026-04-19 00:37 -6.90263 107.58064 2427 ft 3 kts 20°
2026-04-19 00:37 -6.90244 107.58072 2432 ft 3 kts 30°
2026-04-19 00:37 -6.90232 107.58096 2430 ft 3 kts 80°
2026-04-19 00:38 -6.90237 107.58125 2430 ft 8 kts 102°
2026-04-19 00:38 -6.90253 107.58181 2437 ft 8 kts 107°
2026-04-19 00:38 -6.90269 107.58234 2431 ft 8 kts 108°
2026-04-19 00:38 -6.90288 107.58286 2436 ft 8 kts 110°
2026-04-19 00:39 -6.90306 107.58335 2436 ft 7 kts 110°
2026-04-19 00:39 -6.90325 107.58388 2433 ft 9 kts 110°
2026-04-19 00:39 -6.90348 107.58456 2425 ft 11 kts 108°
2026-04-19 00:39 -6.90396 107.58524 2421 ft 12 kts 117°
2026-04-19 00:40 -6.90381 107.58542 2425 ft 3 kts 332°
2026-04-19 00:40 -6.90377 107.58534 2418 ft 0 kts 285°
2026-04-19 00:40 -6.90376 107.58531 2418 ft 5 kts 285°
2026-04-19 00:41 -6.90296 107.58287 2440 ft 70 kts 290°
2026-04-19 00:41 -6.90063 107.57609 2424 ft 134 kts 289°
2026-04-19 00:41 -6.89718 107.56539 2450 ft 182 kts 287°
2026-04-19 00:41 -6.89299 107.55311 3120 ft 185 kts 294°
2026-04-19 00:42 -6.88810 107.54117 3894 ft 184 kts 291°
2026-04-19 00:42 -6.88435 107.52839 4510 ft 191 kts 284°
2026-04-19 00:42 -6.88109 107.51552 5232 ft 191 kts 283°
2026-04-19 00:42 -6.87804 107.50219 5838 ft 200 kts 285°
2026-04-19 00:43 -6.87374 107.48810 6194 ft 220 kts 288°
2026-04-19 00:43 -6.86954 107.47299 6629 ft 227 kts 285°
2026-04-19 00:43 -6.86562 107.45718 7085 ft 240 kts 284°
2026-04-19 00:43 -6.86124 107.44012 7289 ft 266 kts 284°
2026-04-19 00:44 -6.85655 107.42176 7766 ft 278 kts 285°
2026-04-19 00:44 -6.85150 107.40268 8427 ft 282 kts 285°
2026-04-19 00:44 -6.84633 107.38366 9123 ft 285 kts 285°
2026-04-19 00:44 -6.84099 107.36434 9816 ft 289 kts 286°
2026-04-19 00:45 -6.83587 107.34457 10443 ft 292 kts 278°
2026-04-19 00:45 -6.83754 107.32419 11039 ft 296 kts 250°
2026-04-19 00:45 -6.84817 107.30677 11663 ft 297 kts 223°
2026-04-19 00:45 -6.86553 107.29558 12286 ft 297 kts 197°
2026-04-19 00:46 -6.88571 107.29303 12920 ft 297 kts 171°
2026-04-19 00:46 -6.90512 107.29959 13573 ft 295 kts 145°
2026-04-19 00:46 -6.91950 107.31391 14176 ft 295 kts 119°
2026-04-19 00:46 -6.92617 107.33337 14800 ft 295 kts 95°
2026-04-19 00:47 -6.92478 107.35410 15450 ft 297 kts 77°
2026-04-19 00:47 -6.91969 107.37419 16096 ft 300 kts 75°
2026-04-19 00:47 -6.91390 107.39463 16721 ft 303 kts 75°
2026-04-19 00:47 -6.90816 107.41492 17358 ft 306 kts 75°
2026-04-19 00:48 -6.90247 107.43557 17991 ft 308 kts 75°
2026-04-19 00:48 -6.89680 107.45665 18582 ft 311 kts 76°
2026-04-19 00:48 -6.89122 107.47766 19137 ft 314 kts 76°
2026-04-19 00:48 -6.88556 107.49907 19693 ft 316 kts 76°
2026-04-19 00:49 -6.88020 107.52040 20181 ft 322 kts 78°
2026-04-19 00:49 -6.87575 107.54318 20295 ft 339 kts 80°
2026-04-19 00:49 -6.87164 107.56730 20427 ft 355 kts 81°
2026-04-19 00:49 -6.86757 107.59191 20677 ft 365 kts 81°
2026-04-19 00:50 -6.86334 107.61734 21132 ft 369 kts 81°
2026-04-19 00:50 -6.85904 107.64287 21694 ft 369 kts 81°
2026-04-19 00:50 -6.85464 107.66860 22231 ft 371 kts 81°
2026-04-19 00:50 -6.85027 107.69388 22710 ft 373 kts 81°
2026-04-19 00:51 -6.84576 107.71984 23189 ft 376 kts 81°
2026-04-19 00:51 -6.84120 107.74600 23552 ft 382 kts 80°
2026-04-19 00:51 -6.83659 107.77233 23832 ft 387 kts 80°
2026-04-19 00:51 -6.83190 107.79913 24174 ft 391 kts 80°
2026-04-19 00:52 -6.82713 107.82632 24527 ft 394 kts 80°
2026-04-19 00:52 -6.82235 107.85357 24888 ft 396 kts 80°
2026-04-19 00:52 -6.81754 107.88098 25264 ft 398 kts 80°
2026-04-19 00:52 -6.81276 107.90823 25643 ft 400 kts 80°
2026-04-19 00:53 -6.80789 107.93598 26020 ft 402 kts 80°
2026-04-19 00:53 -6.80304 107.96359 26333 ft 405 kts 80°
2026-04-19 00:53 -6.79810 107.99169 26650 ft 409 kts 80°
2026-04-19 00:53 -6.79314 108.01993 26975 ft 412 kts 80°
2026-04-19 00:54 -6.78816 108.04827 27291 ft 415 kts 80°
2026-04-19 00:54 -6.78311 108.07702 27596 ft 418 kts 80°
2026-04-19 00:54 -6.77801 108.10603 27919 ft 420 kts 80°
2026-04-19 00:54 -6.77286 108.13529 28161 ft 425 kts 80°
2026-04-19 00:55 -6.76772 108.16450 28461 ft 427 kts 80°
2026-04-19 00:55 -6.76255 108.19383 28755 ft 429 kts 80°
2026-04-19 00:55 -6.75730 108.22366 29076 ft 431 kts 80°
2026-04-19 00:55 -6.75210 108.25317 29390 ft 433 kts 80°
2026-04-19 00:56 -6.74680 108.28327 29662 ft 435 kts 80°
2026-04-19 00:56 -6.74153 108.31311 29935 ft 438 kts 80°
2026-04-19 00:56 -6.73619 108.34341 30194 ft 439 kts 80°
2026-04-19 00:56 -6.73082 108.37382 30449 ft 441 kts 80°
2026-04-19 00:57 -6.72551 108.40392 30704 ft 442 kts 80°
2026-04-19 00:57 -6.72009 108.43464 30924 ft 444 kts 80°
2026-04-19 00:57 -6.71466 108.46537 31149 ft 444 kts 80°
2026-04-19 00:57 -6.70933 108.49554 31483 ft 441 kts 81°
2026-04-19 00:58 -6.70393 108.52610 31808 ft 439 kts 81°
2026-04-19 00:58 -6.69860 108.55624 32136 ft 438 kts 81°
2026-04-19 00:58 -6.69368 108.58658 32469 ft 437 kts 82°
2026-04-19 00:58 -6.68961 108.61654 32805 ft 435 kts 83°
2026-04-19 00:59 -6.68585 108.64658 33141 ft 434 kts 84°
2026-04-19 00:59 -6.68214 108.67687 33486 ft 433 kts 84°
2026-04-19 00:59 -6.67844 108.70678 33838 ft 431 kts 84°
2026-04-19 00:59 -6.67466 108.73670 34157 ft 429 kts 84°
2026-04-19 01:00 -6.67088 108.76618 34464 ft 427 kts 83°
2026-04-19 01:00 -6.66702 108.79595 34779 ft 425 kts 83°
2026-04-19 01:00 -6.66320 108.82514 35090 ft 423 kts 83°
2026-04-19 01:00 -6.65932 108.85467 35406 ft 420 kts 83°
2026-04-19 01:01 -6.65552 108.88357 35717 ft 418 kts 83°
2026-04-19 01:01 -6.65169 108.91270 35898 ft 419 kts 83°
2026-04-19 01:01 -6.64785 108.94192 36094 ft 420 kts 83°
2026-04-19 01:01 -6.64405 108.97078 36290 ft 420 kts 83°
2026-04-19 01:02 -6.64019 109.00006 36482 ft 420 kts 83°
2026-04-19 01:02 -6.63638 109.02899 36671 ft 421 kts 83°
2026-04-19 01:02 -6.63253 109.05822 36868 ft 421 kts 83°
2026-04-19 01:02 -6.62865 109.08768 36915 ft 424 kts 83°
2026-04-19 01:03 -6.62087 109.14671 36934 ft 432 kts 83°
2026-04-19 01:03 -6.61291 109.20705 36938 ft 440 kts 83°
2026-04-19 01:04 -6.60484 109.26809 37226 ft 439 kts 83°
2026-04-19 01:04 -6.60079 109.29867 37414 ft 438 kts 83°
2026-04-19 01:04 -6.59680 109.32878 37611 ft 436 kts 83°
2026-04-19 01:05 -6.59277 109.35917 37818 ft 435 kts 83°
2026-04-19 01:05 -6.58881 109.38908 38019 ft 433 kts 83°
2026-04-19 01:05 -6.58482 109.41916 38223 ft 431 kts 83°
2026-04-19 01:05 -6.58090 109.44880 38431 ft 429 kts 83°
2026-04-19 01:06 -6.57694 109.47861 38619 ft 427 kts 83°
2026-04-19 01:06 -6.57304 109.50799 38795 ft 424 kts 83°
2026-04-19 01:06 -6.56916 109.53724 38909 ft 424 kts 83°
2026-04-19 01:06 -6.56522 109.56690 38903 ft 426 kts 83°
2026-04-19 01:07 -6.55735 109.62616 38923 ft 430 kts 83°
2026-04-19 01:07 -6.54937 109.68620 38925 ft 435 kts 83°
2026-04-19 01:08 -6.54134 109.74648 38923 ft 440 kts 83°
2026-04-19 01:08 -6.53314 109.80807 38925 ft 444 kts 83°
2026-04-19 01:09 -6.52487 109.87002 38922 ft 449 kts 83°
2026-04-19 01:09 -6.51656 109.93225 38923 ft 453 kts 83°
2026-04-19 01:10 -6.50812 109.99540 38920 ft 457 kts 83°
2026-04-19 01:10 -6.49958 110.05929 38927 ft 461 kts 83°
2026-04-19 01:11 -6.49104 110.12306 38925 ft 464 kts 83°
2026-04-19 01:11 -6.48238 110.18766 38918 ft 466 kts 83°
2026-04-19 01:12 -6.47372 110.25217 38912 ft 462 kts 83°
2026-04-19 01:12 -6.46521 110.31556 38911 ft 455 kts 83°
2026-04-19 01:13 -6.45678 110.37833 38917 ft 453 kts 83°
2026-04-19 01:13 -6.44847 110.44079 38920 ft 451 kts 83°
2026-04-19 01:14 -6.44019 110.50356 38936 ft 451 kts 83°
2026-04-19 01:14 -6.43196 110.56592 38921 ft 452 kts 83°
2026-04-19 01:15 -6.42362 110.62895 38933 ft 454 kts 83°
2026-04-19 01:15 -6.41529 110.69175 38939 ft 456 kts 83°
2026-04-19 01:16 -6.40685 110.75537 38926 ft 458 kts 83°
2026-04-19 01:16 -6.39845 110.81867 38939 ft 460 kts 83°
2026-04-19 01:17 -6.38993 110.88275 38933 ft 462 kts 83°
2026-04-19 01:17 -6.38139 110.94693 38928 ft 463 kts 83°
2026-04-19 01:18 -6.37283 111.01121 38927 ft 464 kts 83°
2026-04-19 01:18 -6.36431 111.07514 38936 ft 464 kts 83°
2026-04-19 01:19 -6.35576 111.13931 38926 ft 464 kts 83°
2026-04-19 01:19 -6.34724 111.20380 38921 ft 463 kts 83°
2026-04-19 01:20 -6.33885 111.26744 38937 ft 462 kts 83°
2026-04-19 01:20 -6.33037 111.33156 38937 ft 461 kts 83°
2026-04-19 01:21 -6.32198 111.39496 38935 ft 460 kts 83°
2026-04-19 01:21 -6.31494 111.44809 38926 ft 459 kts 83°
2026-04-19 01:22 -6.30653 111.51152 38930 ft 458 kts 83°
2026-04-19 01:22 -6.29808 111.57513 38935 ft 458 kts 83°
2026-04-19 01:23 -6.28963 111.63880 38930 ft 458 kts 83°
2026-04-19 01:23 -6.28125 111.70181 38936 ft 458 kts 82°
2026-04-19 01:24 -6.27276 111.76563 38939 ft 459 kts 82°
2026-04-19 01:24 -6.26431 111.82893 38931 ft 460 kts 82°
2026-04-19 01:25 -6.25565 111.89274 38930 ft 460 kts 82°
2026-04-19 01:25 -6.24694 111.95651 38930 ft 461 kts 82°
2026-04-19 01:26 -6.23824 112.02021 38934 ft 462 kts 82°
2026-04-19 01:26 -6.22946 112.08456 38929 ft 462 kts 82°
2026-04-19 01:27 -6.22074 112.14849 38934 ft 463 kts 82°
2026-04-19 01:27 -6.21197 112.21270 38933 ft 463 kts 82°
2026-04-19 01:28 -6.20325 112.27647 38929 ft 463 kts 82°
2026-04-19 01:28 -6.19441 112.34100 38934 ft 463 kts 82°
2026-04-19 01:29 -6.18565 112.40498 38945 ft 463 kts 82°
2026-04-19 01:29 -6.17685 112.46914 38938 ft 463 kts 82°
2026-04-19 01:30 -6.16808 112.53309 38939 ft 463 kts 82°
2026-04-19 01:30 -6.15930 112.59696 38938 ft 462 kts 82°
2026-04-19 01:31 -6.15049 112.66108 38929 ft 462 kts 82°
2026-04-19 01:31 -6.14166 112.72526 38934 ft 462 kts 82°
2026-04-19 01:32 -6.13289 112.78895 38930 ft 462 kts 82°
2026-04-19 01:32 -6.12405 112.85306 38935 ft 462 kts 82°
2026-04-19 01:33 -6.11523 112.91698 38943 ft 462 kts 82°
2026-04-19 01:33 -6.10638 112.98110 38931 ft 463 kts 82°
2026-04-19 01:34 -6.09751 113.04521 38941 ft 463 kts 82°
2026-04-19 01:34 -6.08866 113.10920 38932 ft 463 kts 82°
2026-04-19 01:35 -6.07980 113.17320 38939 ft 464 kts 82°
2026-04-19 01:35 -6.07088 113.23759 38938 ft 464 kts 82°
2026-04-19 01:36 -6.06199 113.30167 38933 ft 464 kts 82°
2026-04-19 01:36 -6.05303 113.36618 38939 ft 465 kts 82°
2026-04-19 01:37 -6.04411 113.43036 38944 ft 465 kts 82°
2026-04-19 01:37 -6.03521 113.49439 38940 ft 465 kts 82°
2026-04-19 01:38 -6.02621 113.55903 38940 ft 465 kts 82°
2026-04-19 01:38 -6.01728 113.62316 38932 ft 466 kts 82°
2026-04-19 01:39 -6.00826 113.68784 38937 ft 466 kts 82°
2026-04-19 01:39 -5.99931 113.75196 38935 ft 466 kts 82°
2026-04-19 01:40 -5.99028 113.81666 38946 ft 466 kts 82°
2026-04-19 01:40 -5.98131 113.88077 38939 ft 466 kts 82°
2026-04-19 01:41 -5.97227 113.94541 38945 ft 466 kts 81°
2026-04-19 01:41 -5.96329 114.00950 38940 ft 465 kts 82°
2026-04-19 01:42 -5.95424 114.07413 38941 ft 465 kts 81°
2026-04-19 01:43 -5.94072 114.17046 38942 ft 465 kts 81°
2026-04-19 01:43 -5.93166 114.23491 38940 ft 465 kts 81°
2026-04-19 01:44 -5.92265 114.29895 38942 ft 464 kts 81°
2026-04-19 01:44 -5.91359 114.36327 38939 ft 464 kts 81°
2026-04-19 01:45 -5.90461 114.42701 38945 ft 463 kts 81°
2026-04-19 01:45 -5.89555 114.49127 38940 ft 462 kts 81°
2026-04-19 01:46 -5.88656 114.55505 38938 ft 462 kts 81°
2026-04-19 01:46 -5.87757 114.61870 38941 ft 461 kts 81°
2026-04-19 01:47 -5.86860 114.68218 38938 ft 459 kts 81°
2026-04-19 01:47 -5.85964 114.74556 38942 ft 458 kts 81°
2026-04-19 01:48 -5.85069 114.80874 38941 ft 457 kts 81°
2026-04-19 01:48 -5.84172 114.87198 38938 ft 456 kts 81°
2026-04-19 01:49 -5.83277 114.93505 38941 ft 456 kts 81°
2026-04-19 01:49 -5.82388 114.99773 38936 ft 455 kts 81°
2026-04-19 01:50 -5.81495 115.06061 38939 ft 455 kts 81°
2026-04-19 01:50 -5.80600 115.12353 38940 ft 454 kts 81°
2026-04-19 01:51 -5.79706 115.18640 38943 ft 454 kts 81°
2026-04-19 01:51 -5.78810 115.24927 38941 ft 455 kts 81°
2026-04-19 01:52 -5.77913 115.31224 38938 ft 455 kts 81°
2026-04-19 01:52 -5.77021 115.37477 38936 ft 455 kts 81°
2026-04-19 01:53 -5.76120 115.43792 38939 ft 455 kts 81°
2026-04-19 01:53 -5.75220 115.50093 38939 ft 455 kts 81°
2026-04-19 01:54 -5.74324 115.56358 38936 ft 456 kts 81°
2026-04-19 01:54 -5.73425 115.62644 38939 ft 456 kts 81°
2026-04-19 01:55 -5.72519 115.68974 38940 ft 456 kts 81°
2026-04-19 01:55 -5.71618 115.75260 38939 ft 456 kts 81°
2026-04-19 01:56 -5.70711 115.81579 38935 ft 456 kts 81°
2026-04-19 01:56 -5.69807 115.87881 38936 ft 456 kts 81°
2026-04-19 01:57 -5.68903 115.94173 38939 ft 456 kts 81°
2026-04-19 01:57 -5.67995 116.00489 38936 ft 456 kts 81°
2026-04-19 01:58 -5.67092 116.06773 38937 ft 456 kts 81°
2026-04-19 01:58 -5.66184 116.13075 38938 ft 456 kts 81°
2026-04-19 01:59 -5.65274 116.19396 38939 ft 456 kts 81°
2026-04-19 01:59 -5.64370 116.25663 38939 ft 455 kts 81°
2026-04-19 02:00 -5.63460 116.31967 38933 ft 455 kts 81°
2026-04-19 02:00 -5.62551 116.38262 38939 ft 454 kts 81°
2026-04-19 02:01 -5.61646 116.44521 38938 ft 454 kts 81°
2026-04-19 02:01 -5.60743 116.50765 38940 ft 453 kts 81°
2026-04-19 02:02 -5.59838 116.57016 38937 ft 452 kts 81°
2026-04-19 02:02 -5.58936 116.63245 38936 ft 451 kts 81°
2026-04-19 02:03 -5.58029 116.69501 38938 ft 450 kts 81°
2026-04-19 02:03 -5.57129 116.75701 38940 ft 450 kts 81°
2026-04-19 02:04 -5.56230 116.81893 38937 ft 449 kts 81°
2026-04-19 02:04 -5.55323 116.88134 38940 ft 449 kts 81°
2026-04-19 02:05 -5.54426 116.94301 38945 ft 449 kts 81°
2026-04-19 02:05 -5.53523 117.00514 38942 ft 449 kts 81°
2026-04-19 02:06 -5.52622 117.06702 38940 ft 449 kts 81°
2026-04-19 02:06 -5.51528 117.12859 38942 ft 449 kts 78°
2026-04-19 02:07 -5.50265 117.19000 38940 ft 450 kts 78°
2026-04-19 02:07 -5.49003 117.25183 38940 ft 450 kts 78°
2026-04-19 02:08 -5.47779 117.31325 38943 ft 451 kts 78°
2026-04-19 02:08 -5.46563 117.37491 38938 ft 451 kts 78°
2026-04-19 02:09 -5.45552 117.42632 38940 ft 451 kts 78°
2026-04-19 02:09 -5.44338 117.48794 38939 ft 451 kts 78°
2026-04-19 02:10 -5.43124 117.54952 38940 ft 450 kts 78°
2026-04-19 02:10 -5.41905 117.61123 38936 ft 450 kts 78°
2026-04-19 02:11 -5.40692 117.67265 38936 ft 449 kts 78°
2026-04-19 02:11 -5.39477 117.73415 38940 ft 448 kts 78°
2026-04-19 02:12 -5.38267 117.79534 38940 ft 448 kts 78°
2026-04-19 02:12 -5.37052 117.85675 38940 ft 447 kts 78°
2026-04-19 02:13 -5.35839 117.91805 38936 ft 447 kts 78°
2026-04-19 02:13 -5.34633 117.97893 38937 ft 446 kts 78°
2026-04-19 02:14 -5.33429 118.03972 38939 ft 446 kts 78°
2026-04-19 02:14 -5.32218 118.10081 38936 ft 445 kts 78°
2026-04-19 02:15 -5.31010 118.16168 38937 ft 445 kts 78°
2026-04-19 02:15 -5.29802 118.22257 38937 ft 445 kts 78°
2026-04-19 02:16 -5.28594 118.28341 38939 ft 445 kts 78°
2026-04-19 02:16 -5.27383 118.34435 38936 ft 445 kts 78°
2026-04-19 02:17 -5.26173 118.40525 38937 ft 445 kts 78°
2026-04-19 02:17 -5.24960 118.46624 38936 ft 445 kts 78°
2026-04-19 02:18 -5.23754 118.52685 38938 ft 446 kts 78°
2026-04-19 02:18 -5.22536 118.58804 38936 ft 446 kts 78°
2026-04-19 02:19 -5.21320 118.64908 38938 ft 446 kts 78°
2026-04-19 02:19 -5.20102 118.71018 38938 ft 446 kts 78°
2026-04-19 02:20 -5.18284 118.80136 38938 ft 446 kts 78°
2026-04-19 02:20 -5.17064 118.86249 38938 ft 447 kts 78°
2026-04-19 02:21 -5.15846 118.92351 38939 ft 447 kts 78°
2026-04-19 02:21 -5.14621 118.98480 38939 ft 447 kts 78°
2026-04-19 02:22 -5.13397 119.04608 38937 ft 447 kts 78°
2026-04-19 02:22 -5.12176 119.10713 38935 ft 447 kts 78°
2026-04-19 02:23 -5.10956 119.16813 38932 ft 447 kts 78°
2026-04-19 02:23 -5.09725 119.22958 38933 ft 447 kts 78°
2026-04-19 02:24 -5.08503 119.29063 38934 ft 447 kts 79°
2026-04-19 02:24 -5.07286 119.35136 38939 ft 446 kts 79°
2026-04-19 02:25 -5.06058 119.41262 38934 ft 446 kts 79°
2026-04-19 02:25 -5.04838 119.47346 38942 ft 446 kts 79°
2026-04-19 02:26 -5.03617 119.53450 38942 ft 445 kts 79°
2026-04-19 02:26 -5.02600 119.59581 38938 ft 445 kts 82°
2026-04-19 02:27 -5.01686 119.65714 38940 ft 445 kts 82°
2026-04-19 02:27 -5.00761 119.71814 38944 ft 445 kts 82°
2026-04-19 02:28 -4.99801 119.77992 38948 ft 446 kts 81°
2026-04-19 02:28 -4.98839 119.84116 38954 ft 446 kts 81°
2026-04-19 02:29 -4.97873 119.90257 38959 ft 446 kts 82°
2026-04-19 02:29 -4.96910 119.96375 38959 ft 446 kts 82°
2026-04-19 02:30 -4.95946 120.02496 38957 ft 446 kts 82°
2026-04-19 02:30 -4.94977 120.08650 38957 ft 446 kts 82°
2026-04-19 02:31 -4.94009 120.14793 38956 ft 446 kts 81°
2026-04-19 02:31 -4.93048 120.20886 38953 ft 446 kts 82°
2026-04-19 02:32 -4.92077 120.27044 38943 ft 446 kts 81°
2026-04-19 02:32 -4.91107 120.33189 38933 ft 446 kts 82°
2026-04-19 02:33 -4.90137 120.39326 38935 ft 446 kts 81°
2026-04-19 02:33 -4.89160 120.45507 38684 ft 451 kts 81°
2026-04-19 02:34 -4.88668 120.48621 38441 ft 450 kts 81°
2026-04-19 02:34 -4.88182 120.51693 38166 ft 447 kts 81°
2026-04-19 02:34 -4.87694 120.54772 37904 ft 446 kts 81°
2026-04-19 02:34 -4.87214 120.57808 37651 ft 446 kts 81°
2026-04-19 02:35 -4.86726 120.60891 37393 ft 445 kts 81°
2026-04-19 02:35 -4.86244 120.63930 37144 ft 444 kts 81°
2026-04-19 02:35 -4.85758 120.66998 36892 ft 444 kts 81°
2026-04-19 02:35 -4.85271 120.70073 36643 ft 443 kts 81°
2026-04-19 02:36 -4.84788 120.73119 36396 ft 441 kts 81°
2026-04-19 02:36 -4.84314 120.76110 36158 ft 439 kts 81°
2026-04-19 02:36 -4.83834 120.79136 35916 ft 437 kts 81°
2026-04-19 02:36 -4.83355 120.82153 35672 ft 435 kts 81°
2026-04-19 02:37 -4.82880 120.85151 35437 ft 433 kts 81°
2026-04-19 02:37 -4.82409 120.88117 35196 ft 430 kts 81°
2026-04-19 02:37 -4.81942 120.91057 34913 ft 426 kts 81°
2026-04-19 02:37 -4.81477 120.93983 34547 ft 422 kts 80°
2026-04-19 02:38 -4.81021 120.96856 34168 ft 419 kts 80°
2026-04-19 02:38 -4.80566 120.99721 33751 ft 416 kts 80°
2026-04-19 02:38 -4.80112 121.02577 33307 ft 413 kts 80°
2026-04-19 02:38 -4.79658 121.05430 32889 ft 411 kts 80°
2026-04-19 02:39 -4.79213 121.08230 32489 ft 408 kts 80°
2026-04-19 02:39 -4.78765 121.11046 32091 ft 406 kts 80°
2026-04-19 02:39 -4.78320 121.13839 31704 ft 403 kts 80°
2026-04-19 02:39 -4.77881 121.16596 31306 ft 401 kts 80°
2026-04-19 02:40 -4.77446 121.19330 30919 ft 400 kts 80°
2026-04-19 02:40 -4.77003 121.22108 30512 ft 399 kts 80°
2026-04-19 02:40 -4.76571 121.24820 30116 ft 398 kts 80°
2026-04-19 02:40 -4.76133 121.27571 29679 ft 396 kts 80°
2026-04-19 02:41 -4.75702 121.30272 29258 ft 394 kts 80°
2026-04-19 02:41 -4.75268 121.32992 28847 ft 391 kts 80°
2026-04-19 02:41 -4.74842 121.35666 28441 ft 389 kts 80°
2026-04-19 02:41 -4.74420 121.38314 28050 ft 386 kts 80°
2026-04-19 02:42 -4.73995 121.40975 27650 ft 384 kts 80°
2026-04-19 02:42 -4.73573 121.43617 27260 ft 381 kts 80°
2026-04-19 02:42 -4.73153 121.46249 26866 ft 379 kts 80°
2026-04-19 02:42 -4.72742 121.48825 26487 ft 377 kts 80°
2026-04-19 02:43 -4.72326 121.51420 26097 ft 376 kts 80°
2026-04-19 02:43 -4.71914 121.54000 25691 ft 375 kts 81°
2026-04-19 02:43 -4.71502 121.56582 25308 ft 374 kts 81°
2026-04-19 02:43 -4.71089 121.59167 24912 ft 373 kts 81°
2026-04-19 02:44 -4.70681 121.61721 24522 ft 373 kts 81°
2026-04-19 02:44 -4.70270 121.64290 24135 ft 372 kts 81°
2026-04-19 02:44 -4.69858 121.66867 23742 ft 372 kts 81°
2026-04-19 02:44 -4.69452 121.69403 23324 ft 371 kts 81°
2026-04-19 02:45 -4.69039 121.71982 22896 ft 370 kts 81°
2026-04-19 02:45 -4.68635 121.74510 22499 ft 367 kts 81°
2026-04-19 02:45 -4.68235 121.77008 22112 ft 365 kts 81°
2026-04-19 02:45 -4.67831 121.79532 21728 ft 363 kts 81°
2026-04-19 02:46 -4.67436 121.82001 21359 ft 361 kts 81°
2026-04-19 02:46 -4.67035 121.84504 20971 ft 359 kts 81°
2026-04-19 02:46 -4.66642 121.86952 20605 ft 357 kts 81°
2026-04-19 02:46 -4.66250 121.89400 20234 ft 356 kts 81°
2026-04-19 02:47 -4.65856 121.91859 19856 ft 355 kts 81°
2026-04-19 02:47 -4.65468 121.94283 19480 ft 354 kts 81°
2026-04-19 02:47 -4.65072 121.96747 19114 ft 353 kts 81°
2026-04-19 02:47 -4.64394 121.99089 18736 ft 353 kts 64°
2026-04-19 02:48 -4.63052 122.01140 18369 ft 352 kts 47°
2026-04-19 02:48 -4.61252 122.02763 17999 ft 350 kts 39°
2026-04-19 02:48 -4.59338 122.04282 17592 ft 349 kts 38°
2026-04-19 02:48 -4.57415 122.05769 17224 ft 347 kts 38°
2026-04-19 02:49 -4.55534 122.07224 16867 ft 344 kts 38°
2026-04-19 02:49 -4.53632 122.08705 16503 ft 341 kts 38°
2026-04-19 02:49 -4.51789 122.10151 16159 ft 339 kts 39°
2026-04-19 02:49 -4.49952 122.11600 15819 ft 336 kts 39°
2026-04-19 02:50 -4.48104 122.13064 15469 ft 334 kts 39°
2026-04-19 02:50 -4.46296 122.14499 15136 ft 333 kts 39°
2026-04-19 02:50 -4.44494 122.15930 14787 ft 331 kts 39°
2026-04-19 02:51 -4.40905 122.18782 14127 ft 328 kts 39°
2026-04-19 02:51 -4.39107 122.20212 13807 ft 324 kts 39°
2026-04-19 02:51 -4.37396 122.21572 13653 ft 310 kts 39°
2026-04-19 02:51 -4.35704 122.22917 13300 ft 308 kts 39°
2026-04-19 02:52 -4.34035 122.24245 12980 ft 308 kts 39°
2026-04-19 02:52 -4.32354 122.25582 12649 ft 307 kts 39°
2026-04-19 02:52 -4.30689 122.26906 12333 ft 305 kts 39°
2026-04-19 02:52 -4.29022 122.28231 12001 ft 304 kts 39°
2026-04-19 02:53 -4.27909 122.29116 11780 ft 304 kts 39°
2026-04-19 02:53 -4.26273 122.30418 11493 ft 303 kts 39°
2026-04-19 02:53 -4.24081 122.32160 11098 ft 301 kts 39°
2026-04-19 02:53 -4.22990 122.33026 10894 ft 301 kts 39°
2026-04-19 02:54 -4.21347 122.34335 10502 ft 303 kts 39°
2026-04-19 02:54 -4.19719 122.35630 10198 ft 302 kts 39°
2026-04-19 02:54 -4.18102 122.36913 9953 ft 298 kts 39°
2026-04-19 02:54 -4.16477 122.38204 9863 ft 289 kts 39°
2026-04-19 02:55 -4.14968 122.39404 9358 ft 295 kts 39°
2026-04-19 02:55 -4.13383 122.40664 9064 ft 293 kts 39°
2026-04-19 02:55 -4.11762 122.41952 8745 ft 292 kts 39°
2026-04-19 02:55 -4.10175 122.43213 8459 ft 291 kts 39°
2026-04-19 02:56 -4.08597 122.44492 8138 ft 290 kts 45°
2026-04-19 02:56 -4.07479 122.46157 7852 ft 287 kts 70°
2026-04-19 02:56 -4.07012 122.48062 7582 ft 283 kts 81°
2026-04-19 02:56 -4.06686 122.50004 7302 ft 283 kts 82°
2026-04-19 02:57 -4.06380 122.51900 7246 ft 270 kts 81°
2026-04-19 02:57 -4.06084 122.53711 7165 ft 255 kts 81°
2026-04-19 02:57 -4.05803 122.55405 7050 ft 242 kts 81°
2026-04-19 02:57 -4.05527 122.57027 6949 ft 228 kts 81°
2026-04-19 02:58 -4.05264 122.58554 6844 ft 216 kts 81°
2026-04-19 02:58 -4.05010 122.60027 6597 ft 212 kts 81°
2026-04-19 02:58 -4.04760 122.61469 6316 ft 212 kts 81°
2026-04-19 02:58 -4.04509 122.62920 6087 ft 205 kts 81°
2026-04-19 02:59 -4.04272 122.64275 6022 ft 193 kts 81°
2026-04-19 02:59 -4.04047 122.65564 5913 ft 184 kts 81°
2026-04-19 02:59 -4.03715 122.66818 5541 ft 189 kts 57°
2026-04-19 02:59 -4.02820 122.67755 5244 ft 188 kts 45°
2026-04-19 03:00 -4.01883 122.68691 4941 ft 190 kts 46°
2026-04-19 03:00 -4.00958 122.69633 4663 ft 189 kts 46°
2026-04-19 03:00 -4.00046 122.70564 4378 ft 188 kts 46°
2026-04-19 03:00 -3.99133 122.71497 4089 ft 187 kts 46°
2026-04-19 03:01 -3.98231 122.72418 3940 ft 179 kts 46°
2026-04-19 03:01 -3.97372 122.73295 3885 ft 179 kts 46°
2026-04-19 03:01 -3.96479 122.74207 3873 ft 185 kts 46°
2026-04-19 03:01 -3.95577 122.75146 3838 ft 188 kts 52°
2026-04-19 03:02 -3.95027 122.76313 3800 ft 184 kts 75°
2026-04-19 03:02 -3.94862 122.77564 3764 ft 183 kts 94°
2026-04-19 03:02 -3.95121 122.78791 3731 ft 181 kts 114°
2026-04-19 03:02 -3.95800 122.79849 3703 ft 179 kts 135°
2026-04-19 03:03 -3.96793 122.80577 3677 ft 176 kts 156°
2026-04-19 03:03 -3.97969 122.80898 3645 ft 177 kts 176°
2026-04-19 03:03 -3.99192 122.80809 3597 ft 181 kts 199°
2026-04-19 03:03 -4.00073 122.79984 3583 ft 177 kts 246°
2026-04-19 03:04 -4.00428 122.78808 3594 ft 174 kts 253°
2026-04-19 03:04 -4.00748 122.77662 3554 ft 171 kts 253°
2026-04-19 03:04 -4.01068 122.76519 3513 ft 169 kts 253°
2026-04-19 03:04 -4.01385 122.75392 3490 ft 169 kts 253°
2026-04-19 03:05 -4.01705 122.74256 3461 ft 169 kts 253°
2026-04-19 03:05 -4.02028 122.73116 3440 ft 170 kts 253°
2026-04-19 03:05 -4.02347 122.71990 3413 ft 169 kts 253°
2026-04-19 03:05 -4.02672 122.70846 3380 ft 169 kts 253°
2026-04-19 03:06 -4.02993 122.69719 3359 ft 170 kts 253°
2026-04-19 03:06 -4.03316 122.68583 3322 ft 170 kts 253°
2026-04-19 03:06 -4.03644 122.67432 3295 ft 170 kts 253°
2026-04-19 03:06 -4.03943 122.66283 3283 ft 175 kts 258°
2026-04-19 03:07 -4.04159 122.65084 3249 ft 171 kts 259°
2026-04-19 03:07 -4.04354 122.63922 3174 ft 167 kts 259°
2026-04-19 03:07 -4.04546 122.62776 3166 ft 168 kts 259°
2026-04-19 03:07 -4.04743 122.61623 3104 ft 172 kts 259°
2026-04-19 03:08 -4.04945 122.60434 2983 ft 171 kts 259°
2026-04-19 03:08 -4.05144 122.59275 2830 ft 169 kts 259°
2026-04-19 03:08 -4.05345 122.58113 2702 ft 168 kts 259°
2026-04-19 03:08 -4.05542 122.56973 2585 ft 169 kts 260°
2026-04-19 03:09 -4.05743 122.55806 2438 ft 169 kts 260°
2026-04-19 03:09 -4.05944 122.54658 2305 ft 169 kts 260°
2026-04-19 03:09 -4.06145 122.53498 2132 ft 169 kts 260°
2026-04-19 03:09 -4.06347 122.52340 1933 ft 170 kts 261°
2026-04-19 03:10 -4.06542 122.51192 1745 ft 162 kts 261°
2026-04-19 03:10 -4.06732 122.50089 1488 ft 160 kts 260°
2026-04-19 03:10 -4.06925 122.48992 1272 ft 157 kts 260°
2026-04-19 03:10 -4.07111 122.47923 1084 ft 157 kts 261°
2026-04-19 03:11 -4.07308 122.46832 870 ft 157 kts 259°
2026-04-19 03:11 -4.07495 122.45803 692 ft 150 kts 261°
2026-04-19 03:11 -4.07664 122.44771 535 ft 149 kts 261°
2026-04-19 03:11 -4.07843 122.43777 386 ft 143 kts 259°
2026-04-19 03:12 -4.08012 122.42787 170 ft 141 kts 259°
2026-04-19 03:12 -4.08174 122.41912 165 ft 104 kts 261°
2026-04-19 03:12 -4.08284 122.41368 166 ft 59 kts 261°
2026-04-19 03:12 -4.08321 122.41090 167 ft 28 kts 263°
2026-04-19 03:13 -4.08350 122.40946 168 ft 12 kts 238°
2026-04-19 03:13 -4.08372 122.40887 168 ft 1 kts 296°
2026-04-19 03:13 -4.08364 122.40887 168 ft 1 kts 10°
2026-04-19 03:13 -4.08357 122.40895 168 ft 1 kts 54°
2026-04-19 03:14 -4.08353 122.40904 168 ft 1 kts 64°
2026-04-19 03:14 -4.08349 122.40913 168 ft 1 kts 68°
2026-04-19 03:14 -4.08346 122.40921 168 ft 1 kts 68°
2026-04-19 03:14 -4.08343 122.40929 168 ft 1 kts 73°
2026-04-19 03:15 -4.08341 122.40937 168 ft 1 kts 73°
2026-04-19 03:15 -4.08339 122.40945 168 ft 1 kts 73°
2026-04-19 03:15 -4.08332 122.40968 168 ft 9 kts 75°
2026-04-19 03:15 -4.08316 122.41045 169 ft 12 kts 80°
2026-04-19 03:16 -4.08306 122.41127 167 ft 12 kts 83°
2026-04-19 03:16 -4.08293 122.41206 167 ft 11 kts 80°
2026-04-19 03:16 -4.08279 122.41284 167 ft 11 kts 79°
2026-04-19 03:16 -4.08265 122.41358 167 ft 11 kts 79°
2026-04-19 03:17 -4.08252 122.41432 167 ft 10 kts 79°
2026-04-19 03:17 -4.08239 122.41504 165 ft 10 kts 79°
2026-04-19 03:17 -4.08227 122.41572 165 ft 10 kts 80°
2026-04-19 03:17 -4.08215 122.41638 166 ft 10 kts 80°
2026-04-19 03:18 -4.08203 122.41702 167 ft 8 kts 79°
2026-04-19 03:18 -4.08185 122.41736 167 ft 4 kts 20°
2026-04-19 03:18 -4.08158 122.41732 166 ft 4 kts 349°
2026-04-19 03:18 -4.08130 122.41727 166 ft 4 kts 349°
2026-04-19 03:19 -4.08103 122.41722 166 ft 4 kts 349°
2026-04-19 03:19 -4.08078 122.41717 166 ft 4 kts 350°
2026-04-19 03:19 -4.08051 122.41712 166 ft 4 kts 350°
2026-04-19 03:19 -4.08026 122.41708 166 ft 4 kts 350°
2026-04-19 03:20 -4.08002 122.41704 167 ft 4 kts 350°
2026-04-19 03:20 -4.07978 122.41700 165 ft 3 kts 350°
2026-04-19 03:20 -4.07955 122.41696 166 ft 3 kts 350°
2026-04-19 03:20 -4.07933 122.41692 166 ft 3 kts 350°
2026-04-19 03:21 -4.07911 122.41689 166 ft 3 kts 355°
2026-04-19 03:21 -4.07890 122.41692 167 ft 3 kts 20°
2026-04-19 03:21 -4.07873 122.41704 167 ft 3 kts 44°
2026-04-19 03:21 -4.07864 122.41722 167 ft 3 kts 73°
2026-04-19 03:22 -4.07859 122.41741 169 ft 3 kts 73°
2026-04-19 03:22 -4.07854 122.41759 167 ft 3 kts 77°
2026-04-19 03:22 -4.07850 122.41778 167 ft 3 kts 79°
2026-04-19 03:22 -4.07847 122.41795 167 ft 2 kts 80°
2026-04-19 03:23 -4.07845 122.41812 167 ft 2 kts 81°
2026-04-19 03:23 -4.07839 122.41827 167 ft 2 kts 45°
2026-04-19 03:23 -4.07826 122.41827 167 ft 2 kts 359°
2026-04-19 03:23 -4.07813 122.41826 167 ft 2 kts 351°
2026-04-19 03:24 -4.07801 122.41823 167 ft 2 kts 350°
2026-04-19 03:24 -4.07790 122.41821 167 ft 1 kts 349°
2026-04-19 03:24 -4.07788 122.41821 167 ft 0 kts 349°
2026-04-19 03:25 -4.07783 122.41821 164 ft 1 kts 353°
2026-04-19 03:25 -4.07778 122.41820 164 ft 0 kts 353°